Location: Manhattan
(39.1840°N, 96.5710°W)
Time: 17:37:30
(UTC-05:00)

ISS - Visible Passes

Search period start: 24 July 2017 00:00
Search period end: 03 August 2017 00:00
Orbit: 400 x 408 km, 51.6° (Epoch: 25 July)

Date Brightness Start Highest point End Pass type
(mag) Time Alt. Az. Time Alt. Az. Time Alt. Az.
24 Jul -0.5 00:08:48 10° NW 00:10:33 14° NNW 00:12:18 10° NNE visible
24 Jul -1.0 03:23:14 10° NNW 03:25:41 19° NNE 03:28:08 10° ENE visible
24 Jul -3.9 04:59:11 10° WNW 05:02:25 64° SW 05:05:38 10° SE visible
24 Jul -4.0 21:37:59 10° SW 21:41:13 71° SE 21:44:26 10° NE visible
24 Jul -0.9 23:15:36 10° WNW 23:17:58 18° NNW 23:20:21 10° NNE visible
25 Jul -0.6 02:31:15 10° NNW 02:33:06 14° NNE 02:34:58 10° NE visible
25 Jul -3.5 04:07:44 17° NW 04:10:06 63° NE 04:13:20 10° ESE visible
25 Jul -1.9 05:44:45 10° WSW 05:46:12 12° SW 05:47:37 10° SSW visible
25 Jul -1.6 22:22:37 10° W 22:25:27 27° NNW 22:28:18 10° NNE visible
26 Jul -0.2 00:02:11 10° NNW 00:02:47 10° N 00:03:24 10° N visible
26 Jul -0.2 01:39:21 10° N 01:39:29 10° N 01:39:29 10° N visible
26 Jul -2.6 21:29:51 10° WSW 21:33:00 46° NNW 21:36:09 10° NE visible
26 Jul -0.5 23:08:36 10° NW 23:10:07 13° NNW 23:11:37 10° NNE visible
27 Jul -0.8 22:15:18 10° WNW 22:17:28 16° NNW 22:19:39 10° NNE visible
28 Jul -1.3 21:22:12 10° W 21:24:53 23° NNW 21:27:35 10° NNE visible
29 Jul -0.3 00:38:34 10° NNW 00:39:05 11° N 00:39:05 11° N visible
29 Jul -0.6 22:08:19 10° NW 22:09:34 12° NNW 22:10:48 10° N visible
29 Jul -0.5 23:46:51 10° N 23:47:13 10° N 23:47:37 10° NNE visible
30 Jul -0.8 21:14:54 10° WNW 21:16:52 15° NNW 21:18:50 10° NNE visible
31 Jul -0.3 00:29:43 10° NNW 00:30:05 12° NNW 00:30:05 12° NNW visible
31 Jul -0.8 23:37:41 10° NNW 23:39:19 13° NNE 23:39:19 13° NNE visible
01 Aug -0.7 21:07:57 10° NNW 21:08:54 11° N 21:09:50 10° N visible
01 Aug -0.8 22:45:46 10° N 22:46:34 11° N 22:47:22 10° NNE visible
02 Aug -0.3 00:20:57 10° NW 00:21:11 11° NNW 00:21:11 11° NNW visible
02 Aug -1.1 23:28:47 10° NNW 23:30:27 18° N 23:30:27 18° N visible
